Time,TemperatureF,DewpointF,PressureIn,WindDirection,WindDirectionDegrees,WindSpeedMPH,WindSpeedGustMPH,Humidity,HourlyPrecipIn,Conditions,Clouds,dailyrainin,SoftwareType,DateUTC
2013-03-18 00:02:00,20.6,12.0,30.29,NW,316,0.0,-999.0,70,-99.99,,,0.00,weatherlink.com 1.10,2013-03-18 04:02:00,
2013-03-18 00:17:00,20.5,10.0,30.30,NW,316,1.0,-999.0,65,-99.99,,,0.00,weatherlink.com 1.10,2013-03-18 04:17:00,
2013-03-18 00:32:00,20.7,11.0,30.30,NW,316,2.0,-999.0,66,-99.99,,,0.00,weatherlink.com 1.10,2013-03-18 04:32:00,
2013-03-18 00:47:00,20.7,12.0,30.30,NNW,346,0.0,-999.0,68,-99.99,,,0.00,weatherlink.com 1.10,2013-03-18 04:47:00,
2013-03-18 01:02:00,20.1,10.0,30.30,NNW,338,2.0,-999.0,65,-99.99,,,0.00,weatherlink.com 1.10,2013-03-18 05:02:00,
2013-03-18 01:17:00,20.2,9.0,30.30,NNW,339,2.0,-999.0,63,-99.99,,,0.00,weatherlink.com 1.10,2013-03-18 05:17:00,
2013-03-18 01:32:00,20.6,9.0,30.31,NNW,345,5.0,-999.0,62,-99.99,,,0.00,weatherlink.com 1.10,2013-03-18 05:32:00,
2013-03-18 01:47:00,20.4,10.0,30.32,NNW,346,0.0,-999.0,64,-99.99,,,0.00,weatherlink.com 1.10,2013-03-18 05:47:00,
2013-03-18 02:02:00,19.9,9.0,30.33,North,5,0.0,-999.0,63,-99.99,,,0.00,weatherlink.com 1.10,2013-03-18 06:02:00,
2013-03-18 02:17:00,19.7,9.0,30.33,NNW,342,0.0,-999.0,63,-99.99,,,0.00,weatherlink.com 1.10,2013-03-18 06:17:00,
2013-03-18 02:32:00,19.8,9.0,30.33,NNW,342,0.0,-999.0,64,-99.99,,,0.00,weatherlink.com 1.10,2013-03-18 06:32:00,
2013-03-18 02:47:00,19.5,10.0,30.34,NNW,342,0.0,-999.0,66,-99.99,,,0.00,weatherlink.com 1.10,2013-03-18 06:47:00,
2013-03-18 03:02:00,19.1,9.0,30.34,NNW,342,0.0,-999.0,66,-99.99,,,0.00,weatherlink.com 1.10,2013-03-18 07:02:00,
2013-03-18 03:17:00,19.0,8.0,30.33,NNW,342,0.0,-999.0,63,-99.99,,,0.00,weatherlink.com 1.10,2013-03-18 07:17:00,
2013-03-18 03:32:00,19.3,6.0,30.32,North,355,1.0,-999.0,57,-99.99,,,0.00,weatherlink.com 1.10,2013-03-18 07:32:00,
2013-03-18 03:47:00,19.7,5.0,30.33,East,91,1.0,-999.0,52,-99.99,,,0.00,weatherlink.com 1.10,2013-03-18 07:47:00,
2013-03-18 04:02:00,19.7,5.0,30.33,NNW,347,0.0,-999.0,54,-99.99,,,0.00,weatherlink.com 1.10,2013-03-18 08:02:00,
2013-03-18 04:17:00,19.2,5.0,30.33,East,94,0.0,-999.0,55,-99.99,,,0.00,weatherlink.com 1.10,2013-03-18 08:17:00,
2013-03-18 04:32:00,18.5,6.0,30.34,East,94,0.0,-999.0,59,-99.99,,,0.00,weatherlink.com 1.10,2013-03-18 08:32:00,
2013-03-18 04:47:00,17.3,6.0,30.35,East,94,0.0,-999.0,62,-99.99,,,0.00,weatherlink.com 1.10,2013-03-18 08:47:00,
2013-03-18 05:02:00,16.6,7.0,30.35,East,94,0.0,-999.0,66,-99.99,,,0.00,weatherlink.com 1.10,2013-03-18 09:02:00,
2013-03-18 05:17:00,16.0,7.0,30.36,East,94,0.0,-999.0,69,-99.99,,,0.00,weatherlink.com 1.10,2013-03-18 09:17:00,
2013-03-18 05:32:00,15.6,7.0,30.36,East,94,0.0,-999.0,69,-99.99,,,0.00,weatherlink.com 1.10,2013-03-18 09:32:00,
2013-03-18 05:47:00,15.1,7.0,30.36,East,94,0.0,-999.0,70,-99.99,,,0.00,weatherlink.com 1.10,2013-03-18 09:47:00,
2013-03-18 06:02:00,14.8,8.0,30.36,East,94,0.0,-999.0,73,-99.99,,,0.00,weatherlink.com 1.10,2013-03-18 10:02:00,
2013-03-18 06:17:00,14.3,7.0,30.37,East,94,1.0,-999.0,74,-99.99,,,0.00,weatherlink.com 1.10,2013-03-18 10:17:00,
2013-03-18 06:32:00,14.1,7.0,30.38,East,94,0.0,-999.0,74,-99.99,,,0.00,weatherlink.com 1.10,2013-03-18 10:32:00,
2013-03-18 06:47:00,14.4,7.0,30.38,East,94,0.0,-999.0,73,-99.99,,,0.00,weatherlink.com 1.10,2013-03-18 10:47:00,
2013-03-18 07:02:00,14.8,8.0,30.39,East,94,0.0,-999.0,74,-99.99,,,0.00,weatherlink.com 1.10,2013-03-18 11:02:00,
2013-03-18 07:17:00,15.5,7.0,30.38,ESE,116,0.0,-999.0,69,-99.99,,,0.00,weatherlink.com 1.10,2013-03-18 11:17:00,
2013-03-18 07:33:00,16.8,7.0,30.39,ESE,117,1.0,-999.0,65,-99.99,,,0.00,weatherlink.com 1.10,2013-03-18 11:33:00,
2013-03-18 07:48:00,18.0,7.0,30.38,ENE,78,0.0,-999.0,61,-99.99,,,0.00,weatherlink.com 1.10,2013-03-18 11:48:00,
2013-03-18 08:03:00,18.9,7.0,30.39,ESE,112,2.0,-999.0,59,-99.99,,,0.00,weatherlink.com 1.10,2013-03-18 12:03:00,
2013-03-18 08:18:00,19.5,6.0,30.38,ENE,68,3.0,-999.0,57,-99.99,,,0.00,weatherlink.com 1.10,2013-03-18 12:18:00,
2013-03-18 08:33:00,20.3,6.0,30.39,SE,128,1.0,-999.0,55,-99.99,,,0.00,weatherlink.com 1.10,2013-03-18 12:33:00,
2013-03-18 08:48:00,21.2,6.0,30.39,ESE,117,0.0,-999.0,52,-99.99,,,0.00,weatherlink.com 1.10,2013-03-18 12:48:00,
2013-03-18 09:03:00,22.0,7.0,30.39,NE,54,2.0,-999.0,52,-99.99,,,0.00,weatherlink.com 1.10,2013-03-18 13:03:00,
2013-03-18 09:19:00,22.5,7.0,30.38,ESE,105,1.0,-999.0,51,-99.99,,,0.00,weatherlink.com 1.10,2013-03-18 13:19:00,
2013-03-18 09:33:00,22.7,6.0,30.37,East,84,6.0,-999.0,48,-99.99,,,0.00,weatherlink.com 1.10,2013-03-18 13:33:00,
2013-03-18 09:48:00,23.5,6.0,30.37,ENE,75,2.0,-999.0,47,-99.99,,,0.00,weatherlink.com 1.10,2013-03-18 13:48:00,
2013-03-18 10:03:00,24.1,7.0,30.37,East,80,4.0,-999.0,48,-99.99,,,0.00,weatherlink.com 1.10,2013-03-18 14:03:00,
2013-03-18 10:18:00,24.8,8.0,30.36,East,93,3.0,-999.0,48,-99.99,,,0.00,weatherlink.com 1.10,2013-03-18 14:18:00,
2013-03-18 10:33:00,25.7,7.0,30.35,NE,46,3.0,-999.0,45,-99.99,,,0.00,weatherlink.com 1.10,2013-03-18 14:33:00,
2013-03-18 10:48:00,26.3,8.0,30.35,SE,135,6.0,-999.0,45,-99.99,,,0.00,weatherlink.com 1.10,2013-03-18 14:48:00,
2013-03-18 11:03:00,27.2,7.0,30.35,SE,136,3.0,-999.0,43,-99.99,,,0.00,weatherlink.com 1.10,2013-03-18 15:03:00,
2013-03-18 11:18:00,28.0,10.0,30.34,NNE,13,4.0,-999.0,46,-99.99,,,0.00,weatherlink.com 1.10,2013-03-18 15:18:00,
2013-03-18 11:33:00,29.2,9.0,30.35,East,101,2.0,-999.0,43,-99.99,,,0.00,weatherlink.com 1.10,2013-03-18 15:33:00,
2013-03-18 11:48:00,30.1,9.0,30.35,SE,126,4.0,-999.0,41,-99.99,,,0.00,weatherlink.com 1.10,2013-03-18 15:48:00,
2013-03-18 12:03:00,30.8,10.0,30.34,WSW,246,0.0,-999.0,41,-99.99,,,0.00,weatherlink.com 1.10,2013-03-18 16:03:00,
2013-03-18 12:18:00,30.9,10.0,30.34,SE,130,2.0,-999.0,41,-99.99,,,0.00,weatherlink.com 1.10,2013-03-18 16:18:00,
2013-03-18 12:33:00,30.8,8.0,30.34,ESE,121,0.0,-999.0,39,-99.99,,,0.00,weatherlink.com 1.10,2013-03-18 16:33:00,
2013-03-18 12:48:00,31.2,9.0,30.33,SSW,213,3.0,-999.0,40,-99.99,,,0.00,weatherlink.com 1.10,2013-03-18 16:48:00,
2013-03-18 13:03:00,31.0,10.0,30.33,SSE,150,3.0,-999.0,41,-99.99,,,0.00,weatherlink.com 1.10,2013-03-18 17:03:00,
2013-03-18 13:18:00,31.4,11.0,30.33,SE,138,7.0,-999.0,42,-99.99,,,0.00,weatherlink.com 1.10,2013-03-18 17:18:00,
2013-03-18 13:33:00,31.4,10.0,30.32,SE,128,4.0,-999.0,41,-99.99,,,0.00,weatherlink.com 1.10,2013-03-18 17:33:00,
2013-03-18 13:48:00,32.1,12.0,30.30,SSW,198,3.0,-999.0,43,-99.99,,,0.00,weatherlink.com 1.10,2013-03-18 17:48:00,
2013-03-18 14:03:00,32.3,11.0,30.29,SE,132,3.0,-999.0,41,-99.99,,,0.00,weatherlink.com 1.10,2013-03-18 18:03:00,
2013-03-18 14:18:00,32.4,12.0,30.27,ESE,119,4.0,-999.0,42,-99.99,,,0.00,weatherlink.com 1.10,2013-03-18 18:18:00,
2013-03-18 14:33:00,32.4,10.0,30.27,SE,143,2.0,-999.0,40,-99.99,,,0.00,weatherlink.com 1.10,2013-03-18 18:33:00,
2013-03-18 14:48:00,32.3,10.0,30.28,South,169,2.0,-999.0,40,-99.99,,,0.00,weatherlink.com 1.10,2013-03-18 18:48:00,
2013-03-18 15:03:00,32.1,10.0,30.27,SE,145,2.0,-999.0,40,-99.99,,,0.00,weatherlink.com 1.10,2013-03-18 19:03:00,
2013-03-18 15:18:00,32.0,10.0,30.26,East,88,2.0,-999.0,40,-99.99,,,0.00,weatherlink.com 1.10,2013-03-18 19:18:00,
2013-03-18 15:33:00,31.8,9.0,30.24,ESE,111,3.0,-999.0,39,-99.99,,,0.00,weatherlink.com 1.10,2013-03-18 19:33:00,
2013-03-18 15:49:00,32.1,10.0,30.23,NE,55,5.0,-999.0,40,-99.99,,,0.00,weatherlink.com 1.10,2013-03-18 19:49:00,
2013-03-18 16:04:00,31.9,9.0,30.23,SE,146,0.0,-999.0,39,-99.99,,,0.00,weatherlink.com 1.10,2013-03-18 20:04:00,
2013-03-18 16:19:00,31.6,10.0,30.22,NE,42,1.0,-999.0,41,-99.99,,,0.00,weatherlink.com 1.10,2013-03-18 20:19:00,
2013-03-18 16:34:00,31.5,10.0,30.23,SSW,192,2.0,-999.0,41,-99.99,,,0.00,weatherlink.com 1.10,2013-03-18 20:34:00,
2013-03-18 16:49:00,31.4,10.0,30.23,SE,145,1.0,-999.0,41,-99.99,,,0.00,weatherlink.com 1.10,2013-03-18 20:49:00,
2013-03-18 17:04:00,31.3,11.0,30.22,East,95,0.0,-999.0,42,-99.99,,,0.00,weatherlink.com 1.10,2013-03-18 21:04:00,
2013-03-18 17:19:00,31.2,10.0,30.21,East,88,0.0,-999.0,42,-99.99,,,0.00,weatherlink.com 1.10,2013-03-18 21:19:00,
2013-03-18 17:34:00,31.1,11.0,30.20,SE,128,4.0,-999.0,43,-99.99,,,0.00,weatherlink.com 1.10,2013-03-18 21:34:00,
2013-03-18 17:49:00,30.9,11.0,30.19,ESE,121,0.0,-999.0,44,-99.99,,,0.00,weatherlink.com 1.10,2013-03-18 21:49:00,
2013-03-18 18:04:00,30.7,10.0,30.18,SE,134,1.0,-999.0,43,-99.99,,,0.00,weatherlink.com 1.10,2013-03-18 22:04:00,
2013-03-18 18:19:00,30.5,11.0,30.18,ENE,78,2.0,-999.0,45,-99.99,,,0.00,weatherlink.com 1.10,2013-03-18 22:19:00,
2013-03-18 18:34:00,30.3,11.0,30.17,ENE,72,3.0,-999.0,44,-99.99,,,0.00,weatherlink.com 1.10,2013-03-18 22:34:00,
2013-03-18 18:49:00,30.1,13.0,30.17,ESE,103,2.0,-999.0,49,-99.99,,,0.00,weatherlink.com 1.10,2013-03-18 22:49:00,
2013-03-18 19:04:00,29.9,13.0,30.16,ESE,119,6.0,-999.0,50,-99.99,,,0.00,weatherlink.com 1.10,2013-03-18 23:04:00,
2013-03-18 19:18:00,29.9,13.0,30.16,SSE,153,2.0,-999.0,50,-99.99,,,0.00,weatherlink.com 1.10,2013-03-18 23:18:00,
2013-03-18 19:33:00,29.3,16.0,30.16,ESE,115,3.0,-999.0,59,-99.99,,,0.00,weatherlink.com 1.10,2013-03-18 23:33:00,
2013-03-18 19:48:00,27.5,21.0,30.16,ESE,111,1.0,-999.0,76,-99.99,,,0.00,weatherlink.com 1.10,2013-03-18 23:48:00,
2013-03-18 20:03:00,25.8,22.0,30.17,ESE,123,1.0,-999.0,84,-99.99,,,0.00,weatherlink.com 1.10,2013-03-19 00:03:00,
2013-03-18 20:19:00,25.3,22.0,30.16,ESE,117,2.0,-999.0,87,-99.99,,,0.00,weatherlink.com 1.10,2013-03-19 00:19:00,
2013-03-18 20:34:00,24.9,22.0,30.15,SE,132,3.0,-999.0,88,-99.99,,,0.00,weatherlink.com 1.10,2013-03-19 00:34:00,
2013-03-18 20:49:00,24.7,22.0,30.14,ESE,118,5.0,-999.0,89,-99.99,,,0.00,weatherlink.com 1.10,2013-03-19 00:49:00,
2013-03-18 21:04:00,24.5,22.0,30.12,SE,126,5.0,-999.0,89,-99.99,,,0.00,weatherlink.com 1.10,2013-03-19 01:04:00,
2013-03-18 21:19:00,24.5,22.0,30.12,ESE,113,2.0,-999.0,90,-99.99,,,0.00,weatherlink.com 1.10,2013-03-19 01:19:00,
2013-03-18 21:34:00,24.6,22.0,30.12,ESE,109,0.0,-999.0,90,-99.99,,,0.00,weatherlink.com 1.10,2013-03-19 01:34:00,
2013-03-18 21:49:00,24.7,22.0,30.13,SE,132,6.0,-999.0,90,-99.99,,,0.00,weatherlink.com 1.10,2013-03-19 01:49:00,
2013-03-18 22:04:00,24.8,23.0,30.12,ENE,61,1.0,-999.0,91,-99.99,,,0.00,weatherlink.com 1.10,2013-03-19 02:04:00,
2013-03-18 22:19:00,24.9,23.0,30.11,ESE,116,0.0,-999.0,91,-99.99,,,0.00,weatherlink.com 1.10,2013-03-19 02:19:00,
2013-03-18 22:34:00,25.1,23.0,30.11,East,101,9.0,-999.0,91,-99.99,,,0.00,weatherlink.com 1.10,2013-03-19 02:34:00,
2013-03-18 22:49:00,25.2,23.0,30.09,ESE,102,4.0,-999.0,91,-99.99,,,0.00,weatherlink.com 1.10,2013-03-19 02:49:00,
2013-03-18 23:04:00,25.2,23.0,30.07,SE,132,2.0,-999.0,91,-99.99,,,0.00,weatherlink.com 1.10,2013-03-19 03:04:00,
2013-03-18 23:19:00,25.3,23.0,30.07,East,84,1.0,-999.0,92,-99.99,,,0.00,weatherlink.com 1.10,2013-03-19 03:19:00,
2013-03-18 23:34:00,25.4,23.0,30.06,ESE,110,4.0,-999.0,92,-99.99,,,0.00,weatherlink.com 1.10,2013-03-19 03:34:00,
2013-03-18 23:49:00,25.6,24.0,30.05,ENE,72,5.0,-999.0,92,-99.99,,,0.00,weatherlink.com 1.10,2013-03-19 03:49:00,